Change the Weather History Date:

Wednesday, November 13, 2013

  Actual Average Record
Temperature  
Mean Temperature 42 °F -  
Max Temperature 66 °F 49 °F 75 °F (1999)
Min Temperature 19 °F 21 °F -13 °F (2014)
Degree Days  
Heating Degree Days 22    
Moisture  
Dew Point 23 °F    
Average Humidity 54    
Maximum Humidity 80    
Minimum Humidity 18    
Precipitation  
Precipitation 0.00 in - - ()
Sea Level Pressure  
Sea Level Pressure 30.16 in    
Wind  
Wind Speed 3 mph (WNW)    
Max Wind Speed 14 mph    
Max Gust Speed -    
Visibility 10 miles    
Events      
Averages and records for this station are not official NWS values.
T = Trace of Precipitation, MM = Missing Value Source: NWS Daily Summary

Daily Weather History Graph

Daily Weather History Graph

Search for Another Location

Airport or City:

Trip Planner

Search our weather history database for the weather conditions in past years. The results will help you decide how hot, cold, wet, or windy it might be!

Date:

Astronomy

Nov. 13, 2013 Rise Set
Actual Time 6:42 AM MST 4:42 PM MST
Civil Twilight 6:13 AM MST 5:11 PM MST
Nautical Twilight 5:40 AM MST 5:44 PM MST
Astronomical Twilight 5:08 AM MST 6:16 PM MST
Moon 2:32 PM MST (11/13) 2:37 AM MST (11/13)
Length of Visible Light 10h 58m
Length of Day
9h 59m
Waxing Gibbous, 85% of the Moon is Illuminated
Nov 13
Waxing Gibbous
Nov 17
Full
Nov 25
Last Quarter
Dec 2
New
Dec 9
First Quarter

Hourly Weather History & Observations

Time (MST) Temp. Windchill Dew Point Humidity Pressure Visibility Wind Dir Wind Speed Gust Speed Precip Events Conditions
12:15 AM 26.6 °F - 19.4 °F 74% 30.35 in 7.0 mi Calm Calm - N/A   Clear
12:35 AM 28.4 °F 22.2 °F 21.2 °F 74% 30.34 in 6.0 mi WNW 5.8 mph - N/A   Clear
12:55 AM 24.8 °F 19.1 °F 19.4 °F 80% 30.34 in 7.0 mi WNW 4.6 mph - N/A   Clear
1:15 AM 23.0 °F 15.8 °F 17.6 °F 80% 30.34 in 7.0 mi NW 5.8 mph - N/A   Clear
1:35 AM 24.8 °F 17.9 °F 19.4 °F 80% 30.34 in 8.0 mi NW 5.8 mph - N/A   Clear
1:55 AM 23.0 °F 15.8 °F 17.6 °F 80% 30.34 in 9.0 mi NNW 5.8 mph - N/A   Clear
2:15 AM 23.0 °F - 17.6 °F 80% 30.34 in 10.0 mi Calm Calm - N/A   Clear
2:35 AM 23.0 °F - 17.6 °F 80% 30.33 in 10.0 mi Calm Calm - N/A   Clear
2:55 AM 23.0 °F - 17.6 °F 80% 30.32 in 10.0 mi Calm Calm - N/A   Clear
3:15 AM 21.2 °F 16.4 °F 15.8 °F 80% 30.32 in 10.0 mi NW 3.5 mph - N/A   Clear
3:35 AM 21.2 °F 14.9 °F 15.8 °F 80% 30.31 in 10.0 mi WNW 4.6 mph - N/A   Clear
3:55 AM 21.2 °F 13.6 °F 15.8 °F 80% 30.30 in 10.0 mi WNW 5.8 mph - N/A   Clear
4:15 AM 23.0 °F 15.8 °F 15.8 °F 74% 30.30 in 10.0 mi WNW 5.8 mph - N/A   Clear
4:35 AM 21.2 °F 13.6 °F 15.8 °F 80% 30.30 in 10.0 mi WNW 5.8 mph - N/A   Clear
4:55 AM 23.0 °F 18.4 °F 17.6 °F 80% 30.30 in 8.0 mi NNW 3.5 mph - N/A   Clear
5:15 AM 21.2 °F 16.4 °F 15.8 °F 80% 30.29 in 10.0 mi WNW 3.5 mph - N/A   Clear
5:35 AM 19.4 °F 11.5 °F 12.2 °F 74% 30.28 in 10.0 mi NNW 5.8 mph - N/A   Clear
5:55 AM 21.2 °F 16.4 °F 12.2 °F 68% 30.28 in 10.0 mi WNW 3.5 mph - N/A   Clear
6:15 AM 21.2 °F 14.9 °F 15.8 °F 80% 30.27 in 10.0 mi NW 4.6 mph - N/A   Clear
6:35 AM 19.4 °F - 12.2 °F 74% 30.26 in 10.0 mi Calm Calm - N/A   Clear
6:55 AM 19.4 °F 14.3 °F 12.2 °F 74% 30.26 in 10.0 mi NNW 3.5 mph - N/A   Clear
7:15 AM 21.2 °F 16.4 °F 15.8 °F 80% 30.26 in 10.0 mi WNW 3.5 mph - N/A   Clear
7:35 AM 24.8 °F - 19.4 °F 80% 30.26 in 10.0 mi Calm Calm - N/A   Clear
7:55 AM 26.6 °F 22.6 °F 21.2 °F 80% 30.26 in 10.0 mi NW 3.5 mph - N/A   Clear
8:15 AM 30.2 °F - 24.8 °F 80% 30.25 in 10.0 mi Calm Calm - N/A   Clear
8:35 AM 33.8 °F - 24.8 °F 70% 30.25 in 10.0 mi Calm Calm - N/A   Clear
8:55 AM 35.6 °F - 26.6 °F 70% 30.25 in 10.0 mi Calm Calm - N/A   Clear
9:15 AM 39.2 °F - 26.6 °F 61% 30.24 in 10.0 mi Calm Calm - N/A   Clear
9:35 AM 42.8 °F - 28.4 °F 57% 30.23 in 10.0 mi Calm Calm - N/A   Clear
9:55 AM 46.4 °F - 30.2 °F 53% 30.23 in 10.0 mi Calm Calm - N/A   Clear
10:15 AM 48.2 °F - 30.2 °F 50% 30.21 in 10.0 mi South 3.5 mph - N/A   Clear
10:35 AM 53.6 °F - 30.2 °F 41% 30.21 in 10.0 mi SW 4.6 mph - N/A   Clear
10:55 AM 55.4 °F - 28.4 °F 36% 30.19 in 10.0 mi Calm Calm - N/A   Clear
11:15 AM 57.2 °F - 28.4 °F 33% 30.18 in 10.0 mi SSE 3.5 mph - N/A   Clear
11:35 AM 60.8 °F - 28.4 °F 29% 30.16 in 10.0 mi SSE 3.5 mph - N/A   Clear
11:55 AM 60.8 °F - 28.4 °F 29% 30.15 in 10.0 mi Calm Calm - N/A   Clear
12:15 PM 62.6 °F - 21.2 °F 20% 30.14 in 10.0 mi Calm Calm - N/A   Clear
12:35 PM 62.6 °F - 21.2 °F 20% 30.13 in 10.0 mi SE 3.5 mph - N/A   Clear
12:55 PM 64.4 °F - 21.2 °F 19% 30.11 in 10.0 mi South 3.5 mph - N/A   Clear
1:15 PM 64.4 °F - 19.4 °F 18% 30.10 in 10.0 mi Calm Calm - N/A   Clear
1:35 PM 64.4 °F - 19.4 °F 18% 30.09 in 10.0 mi Calm Calm - N/A   Clear
1:55 PM 66.2 °F - 21.2 °F 18% 30.09 in 10.0 mi Calm Calm - N/A   Clear
2:15 PM 66.2 °F - 21.2 °F 18% 30.08 in 10.0 mi Calm Calm - N/A   Clear
2:35 PM 64.4 °F - 23.0 °F 21% 30.07 in 8.0 mi North 4.6 mph - N/A   Clear
2:55 PM 64.4 °F - 26.6 °F 24% 30.06 in 10.0 mi NE 4.6 mph - N/A   Clear
3:15 PM 62.6 °F - 24.8 °F 24% 30.06 in 8.0 mi East 4.6 mph - N/A   Clear
3:35 PM 62.6 °F - 24.8 °F 24% 30.06 in 10.0 mi Calm Calm - N/A   Clear
3:55 PM 59.0 °F - 26.6 °F 29% 30.05 in 10.0 mi Calm Calm - N/A   Clear
4:15 PM 57.2 °F - 26.6 °F 31% 30.04 in 10.0 mi West 3.5 mph - N/A   Clear
4:35 PM 50.0 °F - 26.6 °F 40% 30.05 in 10.0 mi NNW 10.4 mph - N/A   Clear
4:55 PM 51.8 °F - 26.6 °F 38% 30.05 in 9.0 mi NNW 9.2 mph - N/A   Clear
5:15 PM 48.2 °F - 24.8 °F 40% 30.05 in 10.0 mi NNW 9.2 mph - N/A   Clear
5:35 PM 48.2 °F - 24.8 °F 40% 30.05 in 10.0 mi North 5.8 mph - N/A   Clear
5:55 PM 46.4 °F - 24.8 °F 43% 30.05 in 10.0 mi Calm Calm - N/A   Clear
6:15 PM 44.6 °F - 26.6 °F 49% 30.05 in 10.0 mi Calm Calm - N/A   Clear
6:35 PM 44.6 °F 43.1 °F 26.6 °F 49% 30.05 in 10.0 mi ESE 3.5 mph - N/A   Clear
6:55 PM 44.6 °F - 26.6 °F 49% 30.04 in 10.0 mi Calm Calm - N/A   Clear
7:15 PM 44.6 °F 42.2 °F 26.6 °F 49% 30.04 in 10.0 mi WSW 4.6 mph - N/A   Clear
7:35 PM 39.2 °F 35.0 °F 24.8 °F 56% 30.03 in 10.0 mi North 5.8 mph - N/A   Clear
7:55 PM 42.8 °F 38.0 °F 26.6 °F 53% 30.03 in 10.0 mi SSW 8.1 mph - N/A   Clear
8:15 PM 41.0 °F 33.5 °F 26.6 °F 57% 30.02 in 10.0 mi NNE 13.8 mph - N/A   Clear
8:35 PM 42.8 °F 40.1 °F 26.6 °F 53% 30.03 in 10.0 mi NNW 4.6 mph - N/A   Clear
8:55 PM 42.8 °F 38.0 °F 26.6 °F 53% 30.02 in 10.0 mi West 8.1 mph - N/A   Clear
9:15 PM 44.6 °F 40.7 °F 26.6 °F 49% 30.02 in 10.0 mi SW 6.9 mph - N/A   Clear
9:35 PM 44.6 °F 42.2 °F 26.6 °F 49% 30.01 in 10.0 mi WNW 4.6 mph - N/A   Mostly Cloudy
9:55 PM 44.6 °F 43.1 °F 26.6 °F 49% 30.01 in 10.0 mi SW 3.5 mph - N/A   Partly Cloudy
10:15 PM 44.6 °F 40.2 °F 26.6 °F 49% 30.01 in 10.0 mi WNW 8.1 mph - N/A   Scattered Clouds
10:35 PM 44.6 °F 43.1 °F 26.6 °F 49% 30.01 in 10.0 mi West 3.5 mph - N/A   Mostly Cloudy
10:55 PM 44.6 °F 39.7 °F 28.4 °F 53% 30.00 in 10.0 mi WNW 9.2 mph - N/A   Mostly Cloudy
11:15 PM 44.6 °F 40.2 °F 26.6 °F 49% 30.00 in 10.0 mi West 8.1 mph - N/A   Clear
11:35 PM 44.6 °F 43.1 °F 28.4 °F 53% 30.00 in 10.0 mi WNW 3.5 mph - N/A   Clear
11:55 PM 48.2 °F - 26.6 °F 43% 30.00 in 10.0 mi WNW 3.5 mph - N/A   Clear